Home   Weather   France   Bastia   Past weeks
Flag for France

Past Weather in Bastia, Corse, France — Yesterday and Last 2 Weeks

Currently: 55 °F. Clear. (Weather station: Bastia Airport, France). See more current weather

Past Weather in Bastia — Graph

°F

Bastia Temperature Yesterday

Maximum temperature yesterday: 61 °F (at 10:30 am)
Minimum temperature yesterday: 45 °F (at 6:30 am)
Average temperature yesterday: 53 °F

High & Low Weather Summary for the Past Weeks

 TemperatureHumidityPressure
High73 °F (Nov 16, 1:00 pm)100% (Nov 15, 7:00 pm)30.30 "Hg (Nov 15, 7:00 pm)
Low45 °F (Nov 21, 5:30 am)22% (Nov 18, 1:00 pm)29.21 "Hg (Nov 22, 4:30 am)
Average57 °F70%29.85 "Hg
* Reported Nov 13 3:00 pm — Nov 28 3:30 pm, Bastia. Weather by CustomWeather, © 2022

Note: Actual official high and low records may vary slightly from our data, if they occured in-between our weather recording intervals... More about our weather records

Bastia Weather History for the Previous 24 Hours

Scroll right to see more
 ConditionsComfort  
Time TempWeatherWind HumidityBarometerVisibility
3:30 pm
Mon, Nov 28
57 °FClear.6 mph59%29.95 "HgN/A
3:00 pm57 °FPartly sunny.3 mph63%29.95 "HgN/A
2:30 pm57 °FPartly sunny.2 mph59%29.95 "HgN/A
2:00 pm55 °FPartly sunny.2 mph63%29.95 "HgN/A
1:30 pm54 °FPartly sunny.2 mph63%29.95 "HgN/A
1:00 pm54 °FPartly sunny.3 mph63%29.98 "HgN/A
12:30 pm52 °FPartly sunny.2 mph67%29.98 "HgN/A
12:00 pm52 °FPartly sunny.6 mph62%30.01 "HgN/A
11:30 am52 °FPartly sunny.5 mph62%30.01 "HgN/A
11:00 am52 °FBroken clouds.6 mph58%30.04 "HgN/A
10:30 am52 °FPartly sunny.8 mph58%30.04 "HgN/A
9:30 am50 °FOvercast.5 mph67%30.04 "HgN/A
9:00 am48 °FOvercast.3 mph71%30.04 "HgN/A
8:30 am48 °FMostly cloudy.6 mph66%30.04 "HgN/A
8:00 am50 °FMostly cloudy.6 mph58%30.04 "HgN/A
7:30 am50 °FMostly cloudy.8 mph58%30.04 "HgN/A
7:00 am50 °FMostly cloudy.10 mph58%30.07 "HgN/A
6:30 am50 °FMostly cloudy.10 mph58%30.07 "HgN/A
6:00 am50 °FPassing clouds.10 mph58%30.07 "HgN/A
5:30 am48 °FMostly cloudy.10 mph62%30.07 "HgN/A
5:00 am48 °FMostly cloudy.9 mph62%30.09 "HgN/A
4:30 am48 °FClear.10 mph62%30.09 "Hg10 mi
4:00 am48 °FClear.10 mph66%30.09 "Hg10 mi
3:00 am46 °FClear.7 mph71%30.09 "Hg10 mi
2:30 am46 °FClear.8 mph71%30.12 "Hg10 mi
2:00 am46 °FClear.5 mph71%30.12 "Hg10 mi
12:30 am46 °FClear.5 mph76%30.15 "Hg10 mi
12:00 am45 °FClear.7 mph81%30.15 "Hg10 mi
11:30 pm
Sun, Nov 27
45 °FClear.6 mph81%30.18 "Hg10 mi
11:00 pm45 °FClear.5 mph81%30.15 "Hg10 mi
10:30 pm45 °FClear.5 mph81%30.18 "Hg10 mi
10:00 pm45 °FClear.5 mph81%30.18 "Hg10 mi
9:30 pm45 °FClear.5 mph87%30.18 "Hg10 mi
9:00 pm45 °FClear.5 mph87%30.18 "Hg10 mi
8:30 pm46 °FClear.6 mph82%30.18 "Hg10 mi
8:00 pm46 °FClear.5 mph82%30.18 "Hg10 mi
7:30 pm48 °FClear.6 mph76%30.18 "Hg10 mi
7:00 pm48 °FClear.5 mph76%30.21 "Hg10 mi
6:30 pm48 °FClear.7 mph76%30.21 "Hg10 mi
6:00 pm50 °FClear.5 mph76%30.21 "Hg10 mi
5:30 pm52 °FClear.5 mph67%30.21 "Hg10 mi
5:00 pm54 °FClear.5 mph63%30.21 "Hg10 mi
Weather by CustomWeather, © 2022

See weather overview